Location: Tucson
(32.2217°N, 110.9265°W)
Time: 07:42:35
(UTC-07:00)

Tiros 1 - Pass Details

Date: 03 November 2021
Orbit: 629 x 664 km, 48.4° (Epoch: 26 November)

Event Time Altitude Azimuth Distance (km) Brightness Sun altitude
Rises 04:13:24 0° 189° (S) 2,967 - -31.9°
Reaches altitude 10° 04:16:24 10° 170° (S) 2,064 - -31.3°
Exits shadow 04:17:29 14° 158° (SSE) 1,827 9.6 -31.1°
Maximum altitude 04:19:32 17° 129° (SE) 1,629 9.7 -30.6°
Drops below altitude 10° 04:22:40 10° 87° (E) 2,075 10.7 -30.0°
Sets 04:25:42 0° 68° (ENE) 2,990 11.6 -29.3°
